| time (UTC) | temp F | wind direction | speed knots | gust knots | rain 1hr in | rain 24hr in | rain mn in | humidity % | barometer mb |
| 20260505011503 | 58 | 156 | 7.8 | 13.0 | 0.00 | 0.00 | 0.00 | 39 | 1005.6 |
| 20260505010107 | 59 | 188 | 7.8 | 16.5 | 0.00 | 0.00 | 0.00 | 38 | 1005.5 |
| 20260505004550 | 61 | 181 | 8.7 | 18.2 | 0.00 | 0.00 | 0.00 | 37 | 1005.2 |
| 20260505003051 | 62 | 93 | 5.2 | 16.5 | 0.00 | 0.00 | 0.00 | 35 | 1005.0 |
| 20260505001547 | 61 | 179 | 5.2 | 13.0 | 0.00 | 0.00 | 0.00 | 35 | 1004.8 |
| 20260505000053 | 61 | 74 | 11.3 | 19.1 | 0.00 | 0.00 | 0.00 | 35 | 1004.8 |
| 20260504234545 | 63 | 178 | 9.6 | 19.1 | 0.00 | 0.00 | 0.00 | 35 | 1004.6 |
| 20260504233051 | 66 | 186 | 10.4 | 15.6 | 0.00 | 0.00 | 0.00 | 31 | 1004.3 |
| 20260504231544 | 67 | 236 | 4.3 | 9.6 | 0.00 | 0.00 | 0.00 | 30 | 1004.1 |
| 20260504224531 | 69 | 91 | 0.9 | 9.6 | 0.00 | 0.00 | 0.00 | 29 | 1003.9 |
| 20260504223027 | 67 | 194 | 6.1 | 11.3 | 0.00 | 0.00 | 0.00 | 30 | 1003.9 |
| 20260504221507 | 66 | 225 | 1.7 | 11.3 | 0.00 | 0.00 | 0.00 | 31 | 1004.1 |
| 20260504220007 | 68 | 225 | 6.1 | 13.0 | 0.00 | 0.00 | 0.00 | 29 | 1004.0 |
| 20260504214555 | 70 | 262 | 6.1 | 13.0 | 0.00 | 0.00 | 0.00 | 27 | 1003.8 |
| 20260504213054 | 69 | 104 | 1.7 | 11.3 | 0.00 | 0.00 | 0.00 | 29 | 1003.8 |
| 20260504211557 | 69 | 165 | 7.0 | 10.4 | 0.00 | 0.00 | 0.00 | 28 | 1004.0 |
| 20260504210100 | 69 | 200 | 4.3 | 9.6 | 0.00 | 0.00 | 0.00 | 28 | 1004.2 |
| 20260504204551 | 69 | 208 | 6.1 | 13.0 | 0.00 | 0.00 | 0.00 | 28 | 1004.2 |
| 20260504201547 | 67 | 194 | 1.7 | 8.7 | 0.00 | 0.00 | 0.00 | 30 | 1004.3 |
| 20260504200052 | 68 | 173 | 2.6 | 9.6 | 0.00 | 0.00 | 0.00 | 29 | 1004.4 |
| 20260504194540 | 68 | 195 | 4.3 | 10.4 | 0.00 | 0.00 | 0.00 | 29 | 1004.5 |
| 20260504191540 | 68 | 238 | 3.5 | 12.2 | 0.00 | 0.00 | 0.00 | 29 | 1004.6 |
| 20260504190040 | 68 | 197 | 5.2 | 14.8 | 0.00 | 0.00 | 0.00 | 29 | 1004.7 |
| 20260504184540 | 68 | 246 | 4.3 | 11.3 | 0.00 | 0.00 | 0.00 | 29 | 1004.8 |
| 20260504181515 | 68 | 243 | 3.5 | 10.4 | 0.00 | 0.00 | 0.00 | 29 | 1004.8 |
| 20260504180012 | 68 | 190 | 6.1 | 12.2 | 0.00 | 0.00 | 0.00 | 30 | 1004.6 |
| 20260504174556 | 67 | 225 | 6.1 | 13.0 | 0.00 | 0.00 | 0.00 | 31 | 1004.5 |
| 20260504173050 | 66 | 221 | 5.2 | 11.3 | 0.00 | 0.00 | 0.00 | 32 | 1004.5 |
| 20260504171536 | 65 | 232 | 7.0 | 13.0 | 0.00 | 0.00 | 0.00 | 34 | 1004.3 |
| 20260504081512 | 47 | 110 | 5.2 | 7.8 | 0.00 | 0.00 | 0.00 | 60 | 1003.8 |
| 20260504044517 | 54 | 261 | 0.0 | 0.0 | 0.00 | 0.00 | 0.00 | 51 | 1004.6 |
| 20260504043013 | 54 | 263 | 0.0 | 0.0 | 0.00 | 0.00 | 0.00 | 51 | 1004.8 |
| 20260504041559 | 56 | 263 | 0.0 | 2.6 | 0.00 | 0.00 | 0.00 | 47 | 1004.9 |
| 20260504040059 | 57 | 261 | 0.0 | 0.0 | 0.00 | 0.00 | 0.00 | 45 | 1005.0 |
| 20260504034558 | 58 | 263 | 0.0 | 0.0 | 0.00 | 0.00 | 0.00 | 44 | 1005.0 |
| 20260504033116 | 58 | 263 | 0.0 | 0.9 | 0.00 | 0.00 | 0.00 | 43 | 1005.0 |
| 20260504031559 | 59 | 263 | 0.0 | 0.0 | 0.00 | 0.00 | 0.00 | 43 | 1004.9 |
| 20260504030115 | 61 | 263 | 0.0 | 0.0 | 0.00 | 0.00 | 0.00 | 37 | 1004.7 |
| 20260504024557 | 63 | 263 | 0.0 | 0.0 | 0.00 | 0.00 | 0.00 | 33 | 1004.6 |
| 20260504023057 | 64 | 262 | 0.0 | 0.0 | 0.00 | 0.00 | 0.00 | 32 | 1004.5 |
| 20260504021548 | 64 | 263 | 0.0 | 0.9 | 0.00 | 0.00 | 0.00 | 33 | 1004.5 |
| 20260504020044 | 66 | 262 | 0.0 | 0.0 | 0.00 | 0.00 | 0.00 | 32 | 1004.2 |
| 20260504014544 | 67 | 263 | 0.0 | 3.5 | 0.00 | 0.00 | 0.00 | 29 | 1004.0 |
| 20260504013050 | 67 | 261 | 2.6 | 6.1 | 0.00 | 0.00 | 0.00 | 29 | 1004.0 |